User: anonymous   Login
Location: Unspecified
(0.0000°N, 0.0000°E)
Time: 06:13:59
(UTC+00:00)
Language:

KAITUO 1B - Orbit

View from above orbital plane
View from above orbital plane
View from above satellite
View from above satellite

Ground track
Ground track

The orbit data is extracted from the following two-line orbital elements,

1 40912U 15049P   19109.85093929  .00001213  00000-0  60280-4 0  9997
2 40912  97.4511 117.9848 0015872  28.2119  93.4652 15.19460493198222
Epoch (UTC): 19 April 2019 20:25:21
Eccentricity: 0.0015872
inclination: 97.4511°
perigee height: 496 km
apogee height: 518 km
right ascension of ascending node: 117.9848°
argument of perigee: 28.2119°
revolutions per day: 15.19460493
mean anomaly at epoch: 93.4652°
orbit number at epoch: 19822

The dashed part of the orbit path shows where the satellite is in the earth's shadow,  

DLR